FENGYUN 1C DEB, 29939

Orbit data source: Space-Track

FENGYUN 1C DEB, 29939 is space debris in SSO originally from a launch on Mon, 10 May 1999 UTC launched from the Taiyaun Space Center, China (TSC). Fengyun 1C debris stems from the Chinese weather satellite Fengyun-1C, which was intentionally destroyed by a Chinese anti-satellite missile in 2007. This event dramatically increased the amount of space debris, with thousands of trackable fragments posing hazards to satellites and human spaceflight. The Fengyun 1C debris cloud has become a focal point in discussions about space sustainability and the need for international regulations to prevent the creation of new debris.

Loading next visibility...
Identifier
29939, 1999-025JM
Orbit
SSO
Country
Flag of CNCN / PRC
Related business
Manufacturer
Unknown
Mission
Spacecraft
Bus & Motor
Unknown
Mass
Unknown
Launch date (UTC)
1999-05-10 (27 years ago)
Launch vehicle
Unknown
Launch site
Taiyaun Space Center, China (TSC)
Object type
Payload
Rocket body
Debris
Shape & HBR
Unknown shape, 0.2 m
Radar Cross Section
Medium (>0.1 m² and <1 m²)

Expand to show TLE details & history
Last TLE update: 11 hours ago

TLE from 11 hours ago
0 FENGYUN 1C DEB
1 29939U 99025JM  26169.90768191  .00000003  00000-0  24824-4 0  9999
2 29939  98.7143 169.2421 0065570 325.0152  96.4413 14.12127576  1141
Epoch: 2026-06-18T21:47Z
TLE epoch observation values (Epoch: 2026-06-18T21:47:03.717Z)
Latitude
61.06749°
Longitude
-80.67906°
Altitude
868.12 km
Speed
7.421 km/s
True Right ascension
10h 12m 55s
True Declination
60° 55' 26"
Sunlit
Object was in daylight at epoch
Visualization orbit readout
Latitude
Unknown
Longitude
Unknown
Altitude
Unknown
Speed
Unknown
Apparent Right ascension
Unknown
Apparent Declination
Unknown
Sunlit
N/A
Visualization observer readout
Local Sidereal Time
19:15:50
Azimuth
Unknown
Elevation
Unknown
Doppler factor
Unknown
Orbital elements
Apogee altitude
896.66 km
Perigee altitude
801.879 km
Semi-major axis
7,227.406 km
Eccentricity
0.00656
Inclination
98.7143°
RAAN
169.2421°
Arg. of periapsis
325.0152°
True anomaly
97.18723°
Mean anomaly
96.4413°
Eccentric anomaly
96.81433°
Mean motion
3.5324 °/min
Orbital period
101.91 mins
BSTAR
0.000024824
Loading maneuver chart data...
Computing Atmospheric mass density...

Documentation

Showing up to 5 results
|